ARIANE 42P DEB, 44508

Orbit data source: Space-Track

ARIANE 42P DEB, 44508 is space debris in LEO originally from a launch on Mon, 10 Aug 1992 UTC launched from the French Guiana (FRGUI). Debris objects in space refer to the collection of defunct objects orbiting the Earth. Examples of debris include non-operational satellites, rocket bodies, and fragments generated from explosions, collisions, or faulty payload assembly.

Loading next visibility...
Identifier
44508, 1992-052F
Orbit
LEO
Country
Flag of FRFR
Related business
Manufacturer
ArianeGroup
Mission
Spacecraft
Bus & Motor
Unknown
Mass
Unknown
Launch date (UTC)
1992-08-10 (33 years ago)
Launch vehicle
Unknown
Launch site
French Guiana (FRGUI)
Object type
Payload
Rocket body
Debris
Shape & HBR
Unknown shape, 0.2 m
Radar Cross Section
Small (<0.1 m²)

Expand to show TLE details & history
Last TLE update: 1 day ago

TLE from 1 day ago
0 ARIANE 42P DEB
1 44508U 92052F   25354.08610928  .00001460  00000-0  55864-2 0  9993
2 44508  66.0186  25.6838 0371716   2.8032 357.4946 12.72545528 80379
Epoch: 2025-12-20T02:03Z
TLE epoch observation values (Epoch: 2025-12-20T02:03:59.841Z)
Latitude
0.00002°
Longitude
-94.23349°
Altitude
1,085.691 km
Speed
7.444 km/s
True Right ascension
01h 42m 44s
True Declination
0° 00' 00"
Sunlit
Object was in daylight at epoch
Visualization orbit readout
Latitude
Unknown
Longitude
Unknown
Altitude
Unknown
Speed
Unknown
Apparent Right ascension
Unknown
Apparent Declination
Unknown
Sunlit
N/A
Visualization observer readout
Local Sidereal Time
00:41:02
Azimuth
Unknown
Elevation
Unknown
Doppler factor
Unknown
Orbital elements
Apogee altitude
1,658.173 km
Perigee altitude
1,082.14 km
Semi-major axis
7,748.294 km
Eccentricity
0.03717
Inclination
66.0186°
RAAN
25.6838°
Arg. of periapsis
2.8032°
True anomaly
357.29935°
Mean anomaly
357.4946°
Eccentric anomaly
357.39791°
Mean motion
3.18225 °/min
Orbital period
113.13 mins
BSTAR
0.0055864
Loading maneuver chart data...
Computing Atmospheric mass density...
Loading historical data...
Loading historical data...
Loading historical data...
Loading historical data...
Loading historical data...
Loading historical data...
Loading historical data...

Documentation

Showing up to 5 results
|